Regional Weather Roundup
Issued by NWS

Home | Current Version | Previous Version | Graphics & Text | Print | Product List | Glossary On
Versions: 1 2 3 4 5 6 7 8 9 10 11 12 13 14 15 16 17 18 19 20 21 22 23 24 25 26 27 28 29 30 31 32 33 34 35 36 37 38 39 40 41 42 43 44 45 46 47 48 49 50
000
ASUS45 KSLC 281610
RWRUT

UTAH REGIONAL WEATHER ROUNDUP
NATIONAL WEATHER SERVICE SALT LAKE CITY UT
1000 AM MDT THU MAY 28 2015

UTZ001>011-023>025-281700-

NORTHERN UTAH

CITY           SKY/WX    TMP DP  RH WIND       PRES   REMARKS
BRIGHAM CITY   PTSUNNY   61  43  50 S8        30.13R
HILL AFB       SUNNY     59  42  54 CALM      30.13S
LOGAN          CLOUDY    56  48  74 NW6       30.13R
OGDEN          SUNNY     60  43  53 S5        30.12S
PROVO AIRPORT  PTSUNNY   54  46  76 E13       30.16F
SALT LAKE CITY MOSUNNY   61  47  59 SE13      30.11S
VERNAL         SUNNY     58  47  66 E9        30.16S
WENDOVER       SUNNY     59  46  63 CALM      30.13R
HEBER CITY     CLOUDY    46  43  87 W7        30.20S
WEST JORDAN    SUNNY     59  48  67 S10       30.13F

$$

UTZ012>022-026-027-281700-

SOUTHERN/CENTRAL UTAH

CITY           SKY/WX    TMP DP  RH WIND       PRES   REMARKS
BLANDING       SUNNY     65  38  37 CALM      30.22S
BRYCE CANYON   SUNNY     61  31  32 NW6       30.24F
CEDAR CITY     MOSUNNY   62  47  57 VRB3      30.14S
DELTA          SUNNY     60  44  54 N6        30.14S
HANKSVILLE     SUNNY     64  43  45 W3        30.13F
MILFORD        SUNNY     59  47  64 S3        30.13S
MOAB/CYNLANDS  SUNNY     66  45  46 VRB3      30.10F
PRICE          SUNNY     59  41  51 E3        30.16S
ST GEORGE      CLOUDY    70  41  35 W3        30.06S

$$

REGIONAL REPORTS     COLORADO/ARIZONA

CITY           SKY/WX    TMP DP  RH WIND       PRES   REMARKS
CRAIG, CO      PTSUNNY   56  41  57 VRB3      30.18S
GRAND JUNCTION SUNNY     61  46  57 MISG      30.13F
RIFLE          SUNNY     56  47  71 CALM      30.16F
MONTROSE       SUNNY     61  43  51 CALM      30.18S
CORTEZ         SUNNY     66  39  37 E5        30.15F
PAGE, AZ       SUNNY     69  41  36 CALM      30.10R
GRAND CANYON   SUNNY     66  28  24 NW5       30.22R
KINGMAN        SUNNY     79  25  13 S6        30.05R
FLAGSTAFF      SUNNY     64  27  24 MISG      30.24R

$$

REGIONAL REPORTS    NEVADA/IDAHO/WYOMING

CITY           SKY/WX    TMP DP  RH WIND       PRES   REMARKS
LAS VEGAS, NV  SUNNY     81  31  16 S6        29.94R
ELY            SUNNY     57  42  57 CALM      30.19R
ELKO           SUNNY     60  45  57 CALM      30.14S
POCATELLO, ID  MOSUNNY   57  48  72 N5        30.14R
BURLEY         SUNNY     59  47  64 W8        30.11R
EVANSTON, WY   MOSUNNY   47  41  80 S12       30.20S
ROCK SPRINGS   MOSUNNY   52  41  66 SW10      30.17F
KEMMERER       PTSUNNY   52  37  58 SW13      30.20S

$$



USA.gov is the U.S. government's official web portal to all federal, state and local government web resources and services.